[[{"header":{"parameterUnit":"m.s-1","parameterCategory":1,"la1":30.2992,"la2":30.254,"lo1":-89.0895,"lo2":-89.0443,"dy":0.0025,"dx":0.0025,"nx":19,"ny":19,"refTime":"2026-05-02T03:00:00:Z","depth":0,"parameterNumber":2,"parameterNumberName":"U-component_of_WINDS"},"data":[0,0,0,-3.0591,-3.0591,-3.0514,-3.0513,-3.0474,-3.0474,0,0,0,0,0,0,0,0,0,0,0,-3.0649,-3.065,-3.0592,-3.0591,-3.0514,-3.0513,-3.0473,-3.0474,0,0,0,0,0,0,0,0,0,0,0,-3.0649,-3.065,-3.0651,-3.059,-3.0514,-3.0513,-3.0473,-3.0511,0,0,0,0,0,0,0,0,0,0,-3.0576,-3.0662,-3.0649,-3.0651,-3.059,-3.0514,-3.0513,-3.0512,-3.0509,-3.0533,0,-3.0563,0,-3.0518,-3.0475,-3.0475,0,0,0,-3.0565,-3.0665,-3.0613,-3.0651,-3.059,-3.0514,-3.0541,-3.0509,-3.0506,-3.0529,-3.0562,-3.0559,-3.0518,-3.0475,-3.0475,-3.0699,-3.0701,0,0,-3.0569,-3.0654,-3.0616,-3.0612,-3.0627,-3.0544,-3.0539,-3.0506,-3.0548,-3.0562,-3.0557,-3.0517,-3.0475,-3.0475,-3.0696,-3.0699,0,0,0,-3.0599,-3.0659,-3.0605,-3.0616,-3.0597,-3.0542,-3.0537,-3.055,-3.0525,-3.0556,-3.0516,-3.0475,-3.0475,-3.0694,-3.0698,-3.0892,0,0,0,-3.06,-3.0675,-3.0609,-3.066,-3.0599,-3.0572,-3.0583,-3.0528,-3.0521,-3.0517,-3.0475,-3.0475,-3.0691,-3.0696,-3.0881,-3.0971,0,0,0,-3.0642,-3.068,-3.068,-3.0665,-3.0634,-3.0571,-3.0543,-3.0524,-3.0498,-3.0475,-3.0475,-3.069,-3.0695,-3.0871,-3.0954,-3.1055,0,0,0,-3.0712,-3.0855,-3.0685,-3.0828,-3.0636,-3.0691,-3.0543,-3.0579,-3.0582,-3.0475,-3.0692,-3.0697,-3.0868,-3.0944,-3.1045,-3.1157,-3.1211,0,0,-3.094,-3.0885,-3.0962,-3.0808,-3.0915,-3.0695,-3.083,-3.0753,-3.0673,-3.0695,-3.0699,-3.0884,-3.0953,-3.1053,-3.1478,-3.1522,0,0,0,-3.1064,-3.1121,-3.113,-3.1136,-3.108,-3.1038,-3.0931,-3.0902,-3.0915,-3.0702,-3.0944,-3.0982,-3.1037,-3.1087,-3.1124,-3.1167,-3.0723,-3.0722,-3.0722,-3.1511,-3.1399,-3.152,-3.1399,-3.1407,-3.1293,-3.129,-3.1231,-3.1118,-3.1177,-3.1184,-3.1455,-3.1517,-3.1544,-3.159,-3.1231,-3.1232,-3.1232,-3.1233,-3.1835,-3.19,-3.1742,-3.1804,-3.1686,-3.1736,-3.1631,-3.1549,-3.158,-3.1441,-3.1484,-3.1346,-3.1595,-3.1629,-3.1246,-3.1244,-3.1242,-3.1241,-3.124,-3.2118,-3.213,-3.209,-3.2086,-3.2095,-3.1967,-3.2003,-3.1893,-3.179,-3.1832,-3.1828,-3.1825,-3.181,-3.1837,-3.1838,-3.1839,-3.184,-3.1841,-3.1841,-3.2429,-3.2377,-3.2421,-3.2371,-3.2359,-3.233,-3.2216,-3.2202,-3.2158,-3.2075,-3.2075,-3.1958,-3.1638,-3.1563,-3.1856,-3.1853,-3.1851,-3.185,-3.1849,-3.2806,-3.2702,-3.277,-3.2759,-3.2689,-3.2707,-3.2563,-3.2544,-3.2516,-3.2538,-3.2408,-3.219,-3.2127,-3.2097,-3.2034,-3.2431,-3.2431,-3.2431,-3.2431,-3.3047,-3.3002,-3.3046,-3.3035,-3.3011,-3.2888,-3.2969,-3.288,-3.2773,-3.2749,-3.2674,-3.2579,-3.2553,-3.2506,-3.2467,-3.2406,-3.2889,-3.289,-3.289,-3.3273,-3.3221,-3.3311,-3.3203,-3.314,-3.3089,-3.3161,-3.3156,-3.3012,-3.2906,-3.2728,-3.2709,-3.2554,-3.2509,-3.2405,-3.2347,-3.2233,0,0]},{"header":{"parameterUnit":"m.s-1","parameterCategory":1,"la1":30.2992,"la2":30.254,"lo1":-89.0895,"lo2":-89.0443,"dy":0.0025,"dx":0.0025,"nx":19,"ny":19,"refTime":"2026-05-02T03:00:00:Z","depth":0,"parameterNumber":3,"parameterNumberName":"V-component_of_WINDS"},"data":[0,0,0,-4.741,-4.7412,-4.7488,-4.7488,-4.7616,-4.7617,0,0,0,0,0,0,0,0,0,0,0,-4.7407,-4.7408,-4.741,-4.7412,-4.7488,-4.7488,-4.7616,-4.7617,0,0,0,0,0,0,0,0,0,0,0,-4.7406,-4.7408,-4.741,-4.7412,-4.7488,-4.7488,-4.7615,-4.7547,0,0,0,0,0,0,0,0,0,0,-4.7468,-4.7484,-4.7407,-4.741,-4.7413,-4.7488,-4.7488,-4.7543,-4.7551,-4.7595,0,-4.7639,0,-4.763,-4.7628,-4.7628,0,0,0,-4.7398,-4.7477,-4.748,-4.741,-4.7414,-4.7488,-4.745,-4.7547,-4.7556,-4.7606,-4.764,-4.7644,-4.7632,-4.7629,-4.763,-4.7928,-4.793,0,0,-4.7394,-4.7431,-4.7474,-4.7487,-4.7478,-4.7447,-4.7452,-4.7552,-4.7593,-4.7641,-4.7647,-4.7634,-4.763,-4.7631,-4.7926,-4.7929,0,0,0,-4.7391,-4.7429,-4.7428,-4.7483,-4.7494,-4.745,-4.7455,-4.7588,-4.7585,-4.7648,-4.7636,-4.7631,-4.7633,-4.7924,-4.7927,-4.8066,0,0,0,-4.7388,-4.7427,-4.7427,-4.7451,-4.7493,-4.7542,-4.749,-4.7578,-4.7588,-4.7635,-4.7631,-4.7634,-4.7922,-4.7926,-4.8057,-4.8127,0,0,0,-4.7395,-4.7427,-4.7445,-4.7452,-4.7486,-4.754,-4.7542,-4.7579,-4.7582,-4.7628,-4.7635,-4.792,-4.7925,-4.805,-4.8114,-4.8217,0,0,0,-4.7413,-4.7568,-4.7448,-4.7615,-4.7486,-4.7625,-4.7541,-4.7642,-4.7699,-4.7632,-4.7922,-4.7927,-4.8047,-4.8106,-4.8209,-4.8312,-4.8358,0,0,-4.7629,-4.7595,-4.769,-4.7585,-4.7755,-4.761,-4.78,-4.7816,-4.7787,-4.7883,-4.7889,-4.806,-4.8113,-4.8215,-4.8599,-4.8636,0,0,0,-4.7771,-4.7841,-4.7877,-4.7933,-4.7949,-4.7968,-4.7951,-4.7957,-4.8036,-4.7844,-4.8123,-4.8153,-4.8212,-4.8259,-4.8291,-4.8339,-4.795,-4.7949,-4.7949,-4.8132,-4.8084,-4.8239,-4.8201,-4.8255,-4.8235,-4.8275,-4.8279,-4.8216,-4.8283,-4.8312,-4.8551,-4.8608,-4.8631,-4.8682,-4.8361,-4.8361,-4.8362,-4.8362,-4.8445,-4.8536,-4.8446,-4.8565,-4.8513,-4.8612,-4.8598,-4.8549,-4.8633,-4.8525,-4.8574,-4.8462,-4.8673,-4.8715,-4.8372,-4.837,-4.8369,-4.8368,-4.8367,-4.8678,-4.8713,-4.8716,-4.879,-4.8852,-4.8806,-4.8891,-4.8841,-4.8794,-4.8842,-4.8868,-4.8866,-4.8858,-4.8858,-4.8858,-4.8859,-4.886,-4.8861,-4.8861,-4.8919,-4.8918,-4.8996,-4.9024,-4.9052,-4.9082,-4.9061,-4.9088,-4.9104,-4.906,-4.906,-4.8992,-4.8702,-4.8631,-4.8874,-4.8872,-4.887,-4.8869,-4.8868,-4.9258,-4.9173,-4.9293,-4.9321,-4.9349,-4.9414,-4.9347,-4.9404,-4.9418,-4.9461,-4.938,-4.9173,-4.9136,-4.911,-4.9052,-4.9389,-4.9389,-4.9389,-4.9389,-4.9456,-4.9431,-4.9542,-4.959,-4.9631,-4.9582,-4.9719,-4.9704,-4.9675,-4.968,-4.9623,-4.954,-4.9517,-4.9493,-4.9459,-4.9404,-4.9823,-4.9824,-4.9824,-4.9663,-4.9639,-4.9766,-4.9735,-4.9753,-4.9769,-4.9896,-4.9954,-4.9903,-4.984,-4.9684,-4.9666,-4.9531,-4.9489,-4.9427,-4.9376,-4.9273,0,0]}]]